Location: Dompnac
(44.5644°N, 4.1026°E)
Time: 10:11:42
(UTC+00:00)

Cosmos 2026 Rocket - Pass Details

Date: 23 January 2021
Orbit: 940 x 1000 km, 82.9° (Epoch: 26 February)

Event Time Altitude Azimuth Distance (km) Brightness Sun altitude
Rises 18:56:58 0° 195° (SSW) 3,602 7.2 -24.2°
Reaches altitude 10° 18:59:27 10° 199° (SSW) 2,667 6.5 -24.6°
Maximum altitude 19:05:30 65° 280° (W) 1,051 4.3 -25.7°
Drops below altitude 10° 19:11:42 10° 3° (N) 2,724 6.3 -26.8°
Sets 19:14:16 0° 6° (N) 3,685 7.0 -27.2°
